Location: Namasale
(1.5000°N, 32.6167°E)
Time: 10:03:14
(UTC+00:00)

Vanguard 1 Rocket - Pass Details

Date: 21 April 2021
Orbit: 652 x 4225 km, 34.3° (Epoch: 15 May)

Event Time Altitude Azimuth Distance (km) Brightness Sun altitude
Rises 03:39:29 0° 224° (SW) 8,455 11.8 -1.8°
Reaches altitude 10° 03:46:54 10° 214° (SW) 7,406 11.6 0.0°
Maximum altitude 04:08:04 34° 157° (SSE) 4,712 11.2 5.1°
Drops below altitude 10° 04:21:58 10° 98° (E) 5,030 12.9 8.5°
Sets 04:25:39 0° 88° (E) 5,588 13.5 9.4°
